Flag for Portugal Weather past 2 weeks in Amadora, Portugal

Now
54 °F

Passing clouds.


Feels Like: 52 °F
Forecast: 53 / 58 °F
Wind: 7 mph from Northwest

Location: Lisbon Portela Airport

Current Time: Jan 29, 2015 at 4:54:33 AM

Latest Report: Jan 29, 2015 at 4:00 AM


Visibility: N/A

Pressure: 30.27 "Hg

Humidity: 94%

Dew point: 52 °F

Location of AmadoraLocation

Historic Weather in Amadora — Graph

°F

Amadora temperature yesterday

Maximum temperature yesterday: 59 °F (at 2:30 PM)
Minimum temperature yesterday: 50 °F (at 7:00 AM)
Average temperature yesterday: 54 °F

Past Weeks' High & Low Weather Summary

 TemperatureHumidityPressure
High63 °F (Jan 25, 12:30 PM)100% (Jan 14, 3:00 AM)30.45 "Hg (Jan 14, 3:00 AM)
Low39 °F (Jan 25, 5:00 AM)45% (Jan 27, 3:00 PM)29.80 "Hg (Jan 18, 3:30 AM)
Average51 °F82%30.20 "Hg
* Reported Jan 14 3:00 AM — Jan 29 3:30 AM, Amadora, Weather by CustomWeather, © 2014

Note: Actual official high and low records may vary slightly from our data, if they occured in-between our weather recording intervals... More about our weather records

Advertising

Amadora weather history for previous 24 hours

 ConditionsComfort  
Time TempWeatherWind HumidityBarometerVisibility
3:30 AM
Jan 29
54 °FPassing clouds.9 mph94%30.27 "HgN/A
3:00 AM54 °FPassing clouds.6 mph94%30.27 "HgN/A
2:30 AM54 °FPassing clouds.6 mph94%30.27 "HgN/A
2:00 AM54 °FPassing clouds.12 mph94%30.27 "HgN/A
1:30 AM54 °FPassing clouds.6 mph88%30.30 "HgN/A
1:00 AM54 °FPassing clouds.12 mph88%30.30 "HgN/A
12:30 AM54 °FPassing clouds.13 mph88%30.30 "HgN/A
12:00 AM54 °FPassing clouds.9 mph88%30.30 "HgN/A
11:30 PM
Jan 28
54 °FPassing clouds.6 mph88%30.30 "HgN/A
11:00 PM54 °FPassing clouds.3 mph88%30.30 "HgN/A
10:30 PM54 °FPassing clouds.5 mph82%30.33 "HgN/A
10:00 PM54 °FPassing clouds.8 mph88%30.33 "HgN/A
9:30 PM54 °FPassing clouds.7 mph88%30.33 "HgN/A
9:00 PM54 °FPassing clouds.10 mph88%30.33 "HgN/A
8:30 PM54 °FPassing clouds.13 mph88%30.33 "HgN/A
8:00 PM54 °FPassing clouds.12 mph88%30.33 "HgN/A
7:30 PM54 °FPassing clouds.10 mph82%30.33 "HgN/A
7:00 PM54 °FPassing clouds.14 mph82%30.33 "HgN/A
6:30 PM54 °FPassing clouds.17 mph82%30.33 "HgN/A
6:00 PM54 °FPassing clouds.18 mph82%30.30 "HgN/A
5:30 PM54 °FPassing clouds.14 mph82%30.30 "HgN/A
5:02 PM54 °FPassing clouds.20 mph82%30.30 "HgN/A
5:00 PM54 °FPassing clouds.21 mph82%30.30 "HgN/A
4:30 PM55 °FPassing clouds.13 mph77%30.30 "HgN/A
4:00 PM55 °FPassing clouds.16 mph77%30.30 "HgN/A
3:30 PM57 °FPassing clouds.20 mph77%30.30 "HgN/A
3:00 PM57 °FPassing clouds.22 mph72%30.30 "HgN/A
2:46 PM59 °FPassing clouds.21 mph68%30.30 "HgN/A
2:30 PM59 °FPassing clouds.20 mph68%30.30 "HgN/A
2:00 PM57 °FPassing clouds.15 mph72%30.30 "HgN/A
1:45 PM57 °FPassing clouds.21 mph72%30.30 "HgN/A
1:30 PM57 °FPassing clouds.29 mph72%30.33 "HgN/A
1:00 PM57 °FPassing clouds.17 mph72%30.36 "HgN/A
12:30 PM57 °FPassing clouds.16 mph67%30.36 "HgN/A
12:00 PM57 °FPassing clouds.16 mph67%30.36 "HgN/A
11:30 AM57 °FPassing clouds.10 mph67%30.36 "HgN/A
11:00 AM54 °FPassing clouds.10 mph72%30.36 "HgN/A
10:30 AM54 °FPassing clouds.15 mph72%30.36 "HgN/A
10:00 AM52 °FPassing clouds.13 mph77%30.36 "HgN/A
9:30 AM52 °FPassing clouds.12 mph77%30.36 "HgN/A
9:00 AM52 °FScattered clouds.14 mph77%30.36 "HgN/A
8:30 AM52 °FPartly sunny.14 mph82%30.36 "HgN/A
8:00 AM50 °FPassing clouds.14 mph88%30.33 "HgN/A
7:30 AM50 °FPassing clouds.14 mph88%30.33 "HgN/A
7:00 AM50 °FPassing clouds.17 mph88%30.33 "HgN/A
6:30 AM52 °FPassing clouds.18 mph82%30.33 "HgN/A
6:00 AM52 °FPassing clouds.16 mph82%30.33 "HgN/A
5:30 AM52 °FPassing clouds.14 mph82%30.33 "HgN/A
5:00 AM52 °FPassing clouds.9 mph82%30.33 "HgN/A
4:30 AM52 °FPassing clouds.12 mph88%30.33 "HgN/A
4:00 AM52 °FPassing clouds.7 mph88%30.33 "HgN/A
Weather by CustomWeather, © 2014

See weather overviewHow to use our weather pages